Find Starlink 36076

NORAD ID: 66588 Int'l Des: 2025-270 Owner: SPXS Country: US Constellation: starlink operational
LEOCIRCULAR

Live Position

Loading 3D Globe...

About Starlink 36076

Description loading...

Upcoming Passes

Passes for default location (London). Set your location on the main map for personalized predictions.

Altitude History

Loading altitude history...

Two-Line Element Set

1 66588U 25270A 26104.02788821 .00010473 00000-0 38946-3 0 9996
2 66588 43.0017 216.3318 0002419 266.8941 93.1634 15.27588460 23115
Epoch: Apr 14, 2026 • Age: 9 hours

Current Status

Altitude 482.6 km
Velocity 7.63 km/s
Sub-Earth Point 1.35°N, 50.93°E
Launch Date Nov 22, 2025
Age 0.3 years
Type internet

Technical Details

Classification Payload
Mass 575.00 kg
Dry Mass 530.00 kg
Total Mass 575.00 kg
Length 0.30 m
Diameter 4.10 m
Span 29.00 m
Shape Box + pan
Manufacturer SPXS
Bus Type Starlink V2MO
Phase Status In Orbit
Owner/State SPXS/US

Most Searched